Location: Staunton
(38.1490°N, 79.0720°W)
Time: 00:58:39
(UTC-04:00)

ISS - Pass Details

Date: 23 May 2019
Orbit: 408 x 418 km, 51.6° (Epoch: 27 May)

Event Time Altitude Azimuth Distance (km) Brightness Sun altitude
Rises 22:01:56 0° 290° (WNW) 2,345 1.3 -16.0°
Reaches altitude 10° 22:05:30 10° 331° (NNW) 1,488 0.2 -16.5°
Maximum altitude 22:06:22 11° 346° (NNW) 1,444 -0.2 -16.6°
Drops below altitude 10° 22:07:15 10° 1° (N) 1,490 -0.4 -16.8°
Sets 22:10:50 0° 41° (NE) 2,358 0.1 -17.3°
